Change the Weather History Date:

Monday, December 3, 2012

  Actual Average Record
Temperature  
Mean Temperature 62 °F 55 °F  
Max Temperature 67 °F 67 °F 78 °F (2007)
Min Temperature 57 °F 43 °F 37 °F (2004)
Degree Days  
Heating Degree Days 3 10  
Month to date heating degree days 11 30  
Since 1 July heating degree days 124 252  
Cooling Degree Days 0 0  
Month to date cooling degree days 0 0  
Year to date cooling degree days 2163 1705  
Growing Degree Days 12 (Base 50)    
Moisture  
Dew Point 56 °F    
Average Humidity 81    
Maximum Humidity 93    
Minimum Humidity 68    
Precipitation  
Precipitation 0.32 in 0.04 in 0.32 in (2012)
Month to date precipitation 0.46 0.11  
Year to date precipitation 6.68 12.83  
Since 1 July precipitation 1.19 2.45  
Snow  
Snow 0.00 in - - ()
Month to date snowfall 0.0  
Year to date snowfall 0.0  
Since 1 July snowfall 0.0  
Snow Depth 0.00 in    
Sea Level Pressure  
Sea Level Pressure 30.15 in    
Wind  
Wind Speed 2 mph (SSW)    
Max Wind Speed 8 mph    
Max Gust Speed 12 mph    
Visibility 5 miles    
Events Fog , Rain    
T = Trace of Precipitation, MM = Missing Value Source: NWS Daily Summary

Daily Weather History Graph

Daily Weather History Graph

Search for Another Location

Airport or City:

Trip Planner

Search our weather history database for the weather conditions in past years. The results will help you decide how hot, cold, wet, or windy it might be!

Date:

Astronomy

Dec. 03, 2012 Rise Set
Actual Time 6:39 AM PST 4:40 PM PST
Civil Twilight 6:12 AM PST 5:08 PM PST
Nautical Twilight 5:41 AM PST 5:39 PM PST
Astronomical Twilight 5:11 AM PST 6:09 PM PST
Moon 9:24 PM PST (12/3) 10:12 AM PST (12/3)
Length of Visible Light 10h 55m
Length of Day
10h 00m
Waning Gibbous, 77% of the Moon is Illuminated
Dec 3
Waning Gibbous
Dec 6
Last Quarter
Dec 13
New
Dec 19
First Quarter
Dec 28
Full

Hourly Weather History & Observations

Time (PST) Temp. Dew Point Humidity Pressure Visibility Wind Dir Wind Speed Gust Speed Precip Events Conditions
12:53 AM 57.9 °F 55.9 °F 93% 30.10 in 2.5 mi Calm Calm - 0.06 in Rain Rain
12:55 AM 57.2 °F 55.4 °F 94% 30.12 in 1.8 mi Calm Calm - 0.01 in Rain Rain
1:53 AM 57.9 °F 55.9 °F 93% 30.12 in 2.0 mi Calm Calm - 0.08 in Rain Light Rain
2:53 AM 57.9 °F 55.9 °F 93% 30.11 in 2.0 mi Variable 4.6 mph - 0.05 in Rain Light Rain
3:31 AM 57.2 °F 55.4 °F 94% 30.12 in 2.0 mi Calm Calm - 0.02 in Rain Light Rain
3:53 AM 57.9 °F 55.9 °F 93% 30.11 in 2.0 mi East 3.5 mph - 0.04 in Rain Light Rain
4:24 AM 57.2 °F 55.4 °F 94% 30.12 in 2.0 mi East 3.5 mph - 0.02 in Rain Light Rain
4:53 AM 57.2 °F 55.4 °F 94% 30.13 in 2.0 mi Calm Calm - N/A Rain Light Rain
5:31 AM 57.2 °F 55.4 °F 94% 30.14 in 3.0 mi Calm Calm - N/A Rain Light Rain
5:53 AM 57.9 °F 55.9 °F 93% 30.14 in 3.0 mi Calm Calm - 0.03 in Rain Light Rain
6:02 AM 57.2 °F 55.4 °F 94% 30.15 in 2.5 mi Calm Calm - 0.01 in Rain Light Rain
6:53 AM 57.2 °F 55.4 °F 94% 30.16 in 3.0 mi NE 3.5 mph - N/A Rain Light Rain
7:21 AM 59.0 °F 57.2 °F 94% 30.17 in 4.0 mi NE 4.6 mph - 0.00 in   Overcast
7:53 AM 59.0 °F 57.0 °F 93% 30.16 in 5.0 mi ENE 4.6 mph - 0.00 in   Overcast
8:53 AM 59.0 °F 57.0 °F 93% 30.17 in 4.0 mi East 4.6 mph - N/A   Overcast
9:13 AM 60.8 °F 57.2 °F 88% 30.19 in 4.0 mi East 3.5 mph - N/A   Overcast
9:53 AM 60.1 °F 57.0 °F 90% 30.19 in 4.0 mi Calm Calm - 0.00 in Rain Light Rain
10:38 AM 60.8 °F 57.2 °F 88% 30.19 in 5.0 mi Calm Calm - 0.00 in Rain Light Rain
10:49 AM 60.8 °F 57.2 °F 88% 30.19 in 6.0 mi Calm Calm - 0.00 in   Overcast
10:53 AM 61.0 °F 57.0 °F 87% 30.18 in 7.0 mi Calm Calm - 0.00 in   Overcast
11:53 AM 62.1 °F 57.9 °F 86% 30.16 in 9.0 mi Calm Calm - 0.00 in   Overcast
12:53 PM 64.0 °F 57.0 °F 78% 30.13 in 10.0 mi WSW 3.5 mph - N/A   Mostly Cloudy
1:28 PM 64.4 °F 57.2 °F 77% 30.13 in 10.0 mi WSW 4.6 mph - N/A   Mostly Cloudy
1:46 PM 66.2 °F 57.2 °F 73% 30.13 in 10.0 mi Variable 5.8 mph - N/A   Mostly Cloudy
1:53 PM 66.0 °F 57.0 °F 73% 30.11 in 10.0 mi South 4.6 mph - N/A   Mostly Cloudy
2:53 PM 66.0 °F 55.9 °F 70% 30.10 in 10.0 mi SW 3.5 mph - N/A   Mostly Cloudy
3:38 PM 66.2 °F 55.4 °F 68% 30.12 in 10.0 mi West 4.6 mph - N/A   Mostly Cloudy
3:53 PM 66.9 °F 55.9 °F 68% 30.10 in 10.0 mi West 3.5 mph - N/A   Mostly Cloudy
4:53 PM 64.9 °F 55.0 °F 70% 30.10 in 10.0 mi SSW 5.8 mph - N/A   Mostly Cloudy
5:53 PM 63.0 °F 55.9 °F 78% 30.12 in 10.0 mi WSW 3.5 mph - N/A   Mostly Cloudy
6:53 PM 60.1 °F 57.0 °F 90% 30.14 in 10.0 mi West 5.8 mph - N/A   Scattered Clouds
7:26 PM 60.8 °F 57.2 °F 88% 30.16 in 8.0 mi WSW 5.8 mph - N/A   Mostly Cloudy
7:53 PM 60.1 °F 57.0 °F 90% 30.15 in 6.0 mi WSW 4.6 mph - N/A   Mostly Cloudy
8:53 PM 59.0 °F 57.0 °F 93% 30.16 in 5.0 mi Calm Calm - N/A   Mostly Cloudy
9:46 PM 57.2 °F 55.4 °F 94% 30.19 in 2.5 mi SSW 4.6 mph - N/A   Overcast
9:53 PM 57.2 °F 57.2 °F 100% 30.19 in 2.5 mi SSW 4.6 mph - N/A   Overcast
10:23 PM 57.2 °F 57.2 °F 100% 30.18 in 2.0 mi Calm Calm - N/A   Overcast
10:35 PM 57.2 °F 57.2 °F 100% 30.19 in 1.5 mi Calm Calm - N/A   Overcast
10:51 PM 57.2 °F 57.2 °F 100% 30.19 in 2.0 mi Calm Calm - N/A   Overcast
10:53 PM 57.9 °F 57.0 °F 97% 30.18 in 1.8 mi Calm Calm - N/A   Overcast
11:28 PM 57.2 °F 57.2 °F 100% 30.18 in 0.8 mi Calm Calm - N/A   Overcast
11:48 PM 57.2 °F 55.4 °F 94% 30.19 in 0.2 mi South 3.5 mph - N/A Fog Fog
11:53 PM 57.9 °F 55.9 °F 93% 30.18 in 0.5 mi South 4.6 mph - N/A Fog Fog